Weather in Warta

Poland     51°42′34″N   18°36′38″E
temp.,
°C
wind,
m/s
gust,
m/s
humid.,
%
clouds,
%
prec.,
mm/h
press.,
hPa
HPBL,
m
10 may, mon
mon1023:00+14s7147061 0.0 1014408
02:00+12sse61668100 0.0 1014478
05:00+11sse515775 0.0 1013290
08:00+15sse6147273 0.0 1013425
11:00+20sse8155660 0.0 10131075
14:00+23s712504 0.0 10121453
17:00+23s5956100 0.0 10121335
20:00+17s41075100 0.0 1013169
11 may, tue
tue1123:00+14sse488296 0.0 1013120
02:00+14se46851 0.0 101384
05:00+13ese511851 0.0 1011184
08:00+16se613770 0.0 1010325
11:00+22se710610 0.0 1010608
14:00+24se810550 0.0 10091134
17:00+24se711640 0.0 1008674
20:00+20se714751 0.0 1008425
12 may, wed
wed1223:00+17se614746 0.0 1009409
02:00+14ese511810 0.0 1009267
05:00+12ese510820 0.0 1008228
08:00+14ese69734 0.0 1008319
11:00+19ese78640 0.0 1008800
14:00+22ese79530 0.0 10071644
17:00+21e89660 0.1 10061318
20:00+15e713780 0.1 1006614
13 may, thu
thu1323:00+13e612720 0.0 1007410
02:00+9e49850 0.0 1006223
05:00+7ene37945 0.0 1005146
08:00+11ene4677100 0.0 1005423
11:00+15ene556488 0.0 10041064
14:00+17ne455495 0.0 10031595
17:00+15nne4466100 0.0 1003731
20:00+13ene237969 0.0 100340
14 may, fri
fri1423:00+10se228948 0.0 100311
02:00+9s229040 0.0 100319
05:00+9wsw359298 0.0 1004114
08:00+11wsw5793100 0.0 1004433
11:00+13w458297 0.1 1005748
14:00+11wsw469164 0.5 1007441
17:00+15w577286 0.2 10071081
20:00+12w59878 0.3 1008270